星链-37496(STARLINK-37496)

导读

STARLINK-37496(NORAD编号69297)是美国SpaceX公司星链(Starlink)低轨互联网星座的成员卫星,属于星链二代组网序列,推测2026年上半年由猎鹰9号火箭发射升空。该卫星运行于低地轨道,主要承担全球宽带互联网接入服务任务,可向偏远地区、跨洋航线等传统网络覆盖盲区提供低延迟、高带宽的网络连接。截至2026年6月,星链全球在轨活跃卫星已超1万颗,覆盖70余个国家和地区,该卫星当前在轨状态稳定,正按计划参与星座组网运营。

基本信息
目录编号:
69297
目录名称:
STARLINK-37496
国际标识:
2026-119B
轨道中心:
EARTH
卫星名称:
星链-37496
卫星全名:
星链-37496(STARLINK-37496)
卫星状态:
在轨 (已飞行13 天)
发射日期:
2026-05-30 UTC
国别 :
美国 (US)
星等 :
--
轨道信息
数据来源 国际轨道数据
星历时间: 2026-06-12T11:31:03+0800
17小时前
查看轨道信息
半长轴: 6708.437km
偏心率: 0.000095
轨道倾角: 97.283°
近地点辐角 104.448°
升交点赤经 188.692°
平近点角 255.689°
近地点: 329.662km
远地点: 330.938km
周期: 91.136分钟
每日圈数: 15.800497
详细信息
固有亮度:
5
最大亮度:
2.5
卫星平台:
Starlink V1.0
覆盖范围:
全球
运营商:
太空探索技术公司
运营商所在国:
美国
制造商(研发单位):
太空探索技术公司
制造商所在国:
美国
使用方式:
暂无
卫星简介
Starlink 计划是 SpaceX 推出的全球卫星互联网项目,通过发射低轨道卫星,为全球尤其是偏远地区提供高速、低延迟的互联网服务。自 2019 年起,Starlink 已部署数千颗卫星,旨在缩小全球数字鸿沟,推动互联网普及。该项目还为军事、航空等行业提供通信支持,带来广泛经济效益。
2D轨道图
3D轨道图
轨道高度分析图
轨道倾角分析图
轨道综合分析图
查看轨道综合分析图